{"data":{"norad_id":67494,"epoch":"2026-09-19T10:48:18.324576Z","epoch_age_seconds":162831,"freshness":"FRESH","line1":"1 67494U 26012B   26262.45021209  .00014944  00000+0  55111-3 0  9999","line2":"2 67494  43.0029 300.2922 0001965 290.0408  70.0232 15.27601070 37397","mean_motion":15.2760107,"eccentricity":0.0001965,"inclination_deg":43.0029,"raan_deg":300.2922,"arg_perigee_deg":290.0408,"mean_anomaly_deg":70.0232,"bstar":0.00055111,"rev_number":3739,"period_min":94.265448504825,"perigee_km":481.63779493433,"apogee_km":484.33421627553,"semimajor_km":6861.1230056049,"source":"CELESTRAK","updated_at":"2026-09-20T09:00:43.555825Z"}}